AMC-3 1 24936U 97050A 25312.80240838 -.00000261 00000+0 00000+0 0 9999 2 24936 7.6061 66.5798 0003314 176.3304 22.2071 1.00271745 50222 NSS-11 1 26554U 00059A 25312.78022160 .00000026 00000+0 00000+0 0 9991 2 26554 1.5543 84.0036 0003239 147.6900 273.4162 1.00270270 39081 AMC-6 1 26580U 00067A 25312.64727419 .00000089 00000+0 00000+0 0 9992 2 26580 0.0850 75.3711 0003041 141.0817 289.6128 1.00272618 91687 AMC-11 1 28252U 04017A 25312.58062713 -.00000048 00000+0 00000+0 0 9997 2 28252 0.0372 42.7394 0003438 192.7170 270.5097 1.00271721 78665 AMC-15 1 28446U 04041A 25312.58184049 -.00000087 00000+0 00000+0 0 9999 2 28446 0.0517 71.4961 0002523 150.2173 290.7451 1.00271000 77090 NSS-10 1 28526U 05003A 25312.73792801 -.00000250 00000+0 00000+0 0 9997 2 28526 5.8999 73.1117 0002987 163.5566 39.7240 1.00271695 50947 ASTRA 1KR 1 29055U 06012A 25312.60654061 .00000122 00000+0 00000+0 0 9994 2 29055 0.0552 71.8957 0006458 163.8409 49.8776 1.00272942 43483 ASTRA 1L 1 31306U 07016A 25312.82060846 .00000122 00000+0 00000+0 0 9997 2 31306 0.7502 82.6880 0003873 155.3319 125.0742 1.00270420 42776 ASTRA 4A 1 32299U 07057A 25312.81766178 .00000034 00000+0 00000+0 0 9996 2 32299 0.0398 62.5683 0002720 169.1083 115.7699 1.00272076 49439 AMC-21 1 33275U 08038B 25312.64926752 .00000038 00000+0 00000+0 0 9992 2 33275 2.3762 82.9762 0003220 151.8019 282.1616 1.00271693 63282 ASTRA 1M 1 33436U 08057A 25312.74919475 .00000121 00000+0 00000+0 0 9990 2 33436 0.0863 78.8925 0004264 125.8768 132.3506 1.00270262 43524 NSS-9 1 33749U 09008A 25312.78169492 .00000073 00000+0 00000+0 0 9990 2 33749 0.6893 84.4541 0002349 139.1795 289.0791 1.00271930 61313 SES-7 (PROTOSTAR 2) 1 34941U 09027A 25312.83202772 -.00000344 00000+0 00000+0 0 9993 2 34941 0.0670 83.6084 0002104 168.3574 204.1084 1.00271246 60420 NSS-12 1 36032U 09058A 25312.85667220 .00000072 00000+0 00000+0 0 9992 2 36032 0.0979 75.5421 0003986 164.4451 173.7220 1.00271588 58700 SES-1 1 36516U 10016A 25312.58262049 -.00000113 00000+0 00000+0 0 9992 2 36516 0.0168 310.6421 0002959 287.0909 279.0489 1.00271503 56824 ASTRA 3B 1 36581U 10021A 25312.82138847 .00000138 00000+0 00000+0 0 9991 2 36581 0.8962 86.4194 0002343 123.6632 157.3830 1.00271511 56654 SES-3 1 37748U 11035A 25312.58227382 -.00000100 00000+0 00000+0 0 9999 2 37748 0.7540 85.3371 0002645 165.6409 263.6766 1.00272062 52386 ASTRA 1N 1 37775U 11041A 25312.74919475 .00000121 00000+0 00000+0 0 9997 2 37775 0.1017 56.2430 0001578 204.5675 76.3215 1.00272859 42318 SES-2 1 37809U 11049A 25312.79937502 -.00000195 00000+0 00000+0 0 9991 2 37809 0.0520 76.1545 0003048 157.2303 15.6487 1.00270722 51750 QUETZSAT 1 1 37826U 11054A 25312.80128170 -.00000241 00000+0 00000+0 0 9993 2 37826 0.0575 78.6921 0002671 155.6331 25.4046 1.00270228 47664 SES-4 1 38087U 12007A 25312.66963432 -.00000167 00000+0 00000+0 0 9991 2 38087 0.0247 7.2683 0002311 221.2300 38.7056 1.00270679 50011 SES-5 1 38652U 12036A 25312.67500766 .00000035 00000+0 00000+0 0 9992 2 38652 0.0585 300.9388 0002214 288.1000 67.0715 1.00270468 42250 ASTRA 2F 1 38778U 12051A 25312.82234182 .00000151 00000+0 00000+0 0 9990 2 38778 0.0378 254.1746 0004639 336.2025 142.1366 1.00272542 38923 SES-6 1 39172U 13026A 25312.80873507 -.00000260 00000+0 00000+0 0 9992 2 39172 0.0221 324.5187 0002795 269.0914 65.2956 1.00270803 45512 O3B FM5 1 39188U 13031A 25287.77601439 -.00000029 00000+0 00000+0 0 9998 2 39188 0.0539 55.2205 0042654 90.1064 214.9546 5.00261930224766 O3B FM4 1 39189U 13031B 25309.28175124 -.00000012 00000+0 00000+0 0 9999 2 39189 0.0626 357.0781 0004254 258.9984 103.8840 5.00114978225847 O3B FM2 1 39190U 13031C 25310.34710149 -.00000015 00000+0 00000+0 0 9995 2 39190 0.0679 354.4608 0002859 232.1777 133.3449 5.00115855225960 O3B PFM 1 39191U 13031D 25302.16567491 -.00000015 00000+0 00000+0 0 9997 2 39191 0.0476 20.1073 0003958 245.9671 93.8874 5.00115378225103 ASTRA 2E 1 39285U 13056A 25312.82234182 .00000151 00000+0 00000+0 0 9990 2 39285 0.0699 321.4799 0002579 268.1519 143.1968 1.00272072 44206 SES-8 1 39460U 13071A 25312.77162292 -.00000268 00000+0 00000+0 0 9998 2 39460 0.0152 278.9057 0001221 264.9575 237.1492 1.00269945 42228 ASTRA 5B 1 39617U 14011B 25312.82138847 .00000138 00000+0 00000+0 0 9997 2 39617 0.0495 4.4241 0004495 235.4650 127.5797 1.00269103 42453 O3B FM3 1 40079U 14038A 25312.62653980 -.00000021 00000+0 00000+0 0 9990 2 40079 0.0543 358.9768 0001744 166.1190 194.9148 5.00115421202010 O3B FM7 1 40080U 14038B 25296.78126650 -.00000021 00000+0 00000+0 0 9999 2 40080 0.0615 2.8235 0004216 223.8897 133.2586 5.00115582206056 O3B FM6 1 40081U 14038C 25312.79954490 -.00000021 00000+0 00000+0 0 9991 2 40081 0.0572 359.4431 0002746 227.1728 133.3666 5.00115554206806 O3B FM8 1 40082U 14038D 25312.45313981 -.00000020 00000+0 00000+0 0 9998 2 40082 0.0582 359.9008 0002590 229.7304 130.3519 5.00115786206900 O3B FM10 1 40348U 14083A 25309.28176901 -.00000012 00000+0 00000+0 0 9990 2 40348 0.0636 10.1617 0002512 213.9701 135.8559 5.00115037198685 O3B FM11 1 40349U 14083B 25311.69328113 -.00000018 00000+0 00000+0 0 9999 2 40349 0.0503 5.9801 0003426 220.6706 133.3269 5.00115523198839 O3B FM12 1 40350U 14083C 25312.52001255 -.00000020 00000+0 00000+0 0 9992 2 40350 0.0507 4.9746 0002820 219.5820 135.4263 5.00115784198884 O3B FM9 1 40351U 14083D 25312.74672094 -.00000021 00000+0 00000+0 0 9993 2 40351 0.0506 7.1908 0002774 220.6063 132.1848 5.00115744199036 ASTRA 2G 1 40364U 14089A 25312.82234182 .00000150 00000+0 00000+0 0 9996 2 40364 0.0571 23.2218 0000533 26.1928 323.0998 1.00270291 39759 SES-9 1 41380U 16013A 25312.74627230 -.00000344 00000+0 00000+0 0 9991 2 41380 0.0125 336.8630 0000812 191.8791 256.4095 1.00270213 35221 SES-10 1 42432U 17017A 25312.42814174 -.00000271 00000+0 00000+0 0 9994 2 42432 0.0611 78.4191 0003063 159.0032 257.7013 1.00277355 31534 SES-15 1 42709U 17026A 25312.50574671 .00000062 00000+0 00000+0 0 9992 2 42709 0.0236 343.4937 0000444 274.5066 202.8553 1.00266879 5223 SES-11 (ECHOSTAR 105) 1 42967U 17063A 25312.65325421 -.00000088 00000+0 00000+0 0 9991 2 42967 0.0227 2.5058 0003225 234.2941 301.5308 1.00271299 29516 SES-14 1 43175U 18012B 25312.23656108 -.00000276 00000+0 00000+0 0 9990 2 43175 0.0253 17.0687 0001205 211.4650 216.8288 1.00271343 4817 O3B FM15 1 43231U 18024A 25312.41363825 -.00000020 00000+0 00000+0 0 9994 2 43231 0.0466 357.2969 0002891 226.9484 135.7372 5.00115397139986 O3B FM16 1 43232U 18024B 25312.66595838 -.00000021 00000+0 00000+0 0 9994 2 43232 0.0439 353.0329 0002957 231.8504 135.0982 5.00115648139903 O3B FM14 1 43233U 18024C 25312.50675856 -.00000020 00000+0 00000+0 0 9996 2 43233 0.0446 351.2456 0002893 232.5238 136.2133 5.00115369139916 O3B FM13 1 43234U 18024D 25303.77744220 -.00000013 00000+0 00000+0 0 9990 2 43234 0.0473 15.1775 0009420 149.8351 195.0225 5.00114576139583 SES-12 1 43488U 18049A 25312.48908078 -.00000267 00000+0 00000+0 0 9990 2 43488 0.0432 67.1334 0002692 190.2683 61.6116 1.00269890 27207 O3B FM20 1 44112U 19020A 25312.73265397 -.00000021 00000+0 00000+0 0 9991 2 44112 0.0487 0.3333 0003236 220.5971 139.0507 5.00115387120531 O3B FM19 1 44113U 19020B 25302.16569386 -.00000015 00000+0 00000+0 0 9996 2 44113 0.0476 20.1094 0004080 243.2211 96.6302 5.00114635119872 O3B FM17 1 44114U 19020C 25312.63992074 -.00000021 00000+0 00000+0 0 9991 2 44114 0.0578 341.4294 0002911 242.5459 136.0071 5.00115273120495 O3B FM18 1 44115U 19020D 25312.58617125 -.00000020 00000+0 00000+0 0 9996 2 44115 0.0485 0.8539 0002813 226.4877 132.6402 5.00115098120616 SES-17 1 49332U 21095A 25311.42195010 -.00000266 00000+0 00000+0 0 9995 2 49332 0.0249 11.5733 0001288 219.2081 260.9121 1.00268812 15634 SES-22 1 52933U 22071A 25312.71782125 .00000105 00000+0 00000+0 0 9994 2 52933 0.0316 78.5328 0001416 166.8592 282.1891 1.00272707 5312 SES-20 1 53960U 22123A 25312.51086008 -.00000099 00000+0 00000+0 0 9991 2 53960 0.0480 91.9332 0000965 23.7729 13.0732 1.00269127 11325 SES-21 1 53961U 22123B 25311.47894968 .00000075 00000+0 00000+0 0 9991 2 53961 0.0327 59.8618 0000935 156.5972 231.9306 1.00270449 4990 O3B MPOWER F1 1 54755U 22174A 25312.80362171 -.00000021 00000+0 00000+0 0 9995 2 54755 0.0624 6.2182 0004117 230.1538 17.2023 5.00115858 54337 O3B MPOWER F2 1 54756U 22174B 25312.66128816 -.00000021 00000+0 00000+0 0 9996 2 54756 0.0640 3.9516 0005727 229.4144 126.5868 5.00116643 54405 SES-18 1 55970U 23038A 25312.58227382 -.00000100 00000+0 00000+0 0 9992 2 55970 0.0141 279.1659 0003161 333.1866 262.2074 1.00271584 9891 SES-19 1 55971U 23038B 25312.64727419 .00000089 00000+0 00000+0 0 9991 2 55971 0.0125 314.4838 0001965 279.2355 272.4903 1.00271195 9868 O3B MPOWER F4 1 56367U 23059A 25311.69640098 -.00000018 00000+0 00000+0 0 9998 2 56367 0.0471 14.7073 0005334 229.8596 115.3841 5.00114328 47524 O3B MPOWER F3 1 56368U 23059B 25292.90736642 -.00000025 00000+0 00000+0 0 9990 2 56368 0.0454 14.2607 0005936 195.1763 150.5346 5.00129215 42711 O3B MPOWER F5 1 58346U 23175A 25312.62917867 -.00000021 00000+0 00000+0 0 9995 2 58346 0.0429 346.8180 0004505 229.3871 143.7699 5.00115102 38408 O3B MPOWER F6 1 58347U 23175B 25312.52926969 -.00000020 00000+0 00000+0 0 9997 2 58347 0.0445 357.2516 0006692 216.1728 146.5389 5.00114825 37317 ASTRA 1P (SES-24) 1 60086U 24115A 25310.51780978 .00000129 00000+0 00000+0 0 9999 2 60086 0.0633 337.9236 0005063 282.4776 351.2190 1.00270243 4966 O3B MPOWER F7 1 62362U 24244A 25312.79601316 -.00000021 00000+0 00000+0 0 9993 2 62362 0.0536 21.0904 0006096 209.4503 129.4107 5.00115334 15502 O3B MPOWER F8 1 62363U 24244B 25312.76316617 -.00000021 00000+0 00000+0 0 9998 2 62363 0.0803 340.5520 0006967 247.6985 131.6954 5.00116155 9845